Time,TemperatureF,DewpointF,PressureIn,WindDirection,WindDirectionDegrees,WindSpeedMPH,WindSpeedGustMPH,Humidity,HourlyPrecipIn,Conditions,Clouds,dailyrainin,SoftwareType,DateUTC
2013-04-06 00:03:00,44.0,17.0,30.04,NNW,333,13.0,18.0,34,0.00,,,0.00,,2013-04-06 04:03:00,
2013-04-06 00:14:00,44.0,17.0,30.04,NNW,333,13.0,18.0,34,0.00,,,0.00,,2013-04-06 04:14:00,
2013-04-06 00:23:00,43.0,17.0,30.05,NNW,338,12.0,18.0,35,0.00,,,0.00,,2013-04-06 04:23:00,
2013-04-06 00:33:00,43.0,17.0,30.06,NNE,16,4.0,13.0,35,0.00,,,0.00,,2013-04-06 04:33:00,
2013-04-06 00:42:00,43.0,17.0,30.06,NNE,16,4.0,13.0,35,0.00,,,0.00,,2013-04-06 04:42:00,
2013-04-06 00:53:00,43.0,18.0,30.07,NE,34,1.0,3.0,36,0.00,,,0.00,,2013-04-06 04:53:00,
2013-04-06 01:02:00,40.0,19.0,30.08,NNW,346,6.0,10.0,42,0.00,,,0.00,,2013-04-06 05:02:00,
2013-04-06 01:13:00,40.0,19.0,30.08,NNW,346,6.0,10.0,42,0.00,,,0.00,,2013-04-06 05:13:00,
2013-04-06 01:22:00,41.0,19.0,30.09,North,355,5.0,12.0,41,0.00,,,0.00,,2013-04-06 05:22:00,
2013-04-06 01:32:00,40.0,19.0,30.09,NNW,338,7.0,10.0,43,0.00,,,0.00,,2013-04-06 05:32:00,
2013-04-06 01:42:00,40.0,19.0,30.09,NNW,338,7.0,10.0,43,0.00,,,0.00,,2013-04-06 05:42:00,
2013-04-06 01:52:00,40.0,20.0,30.10,NNW,343,7.0,12.0,45,0.00,,,0.00,,2013-04-06 05:52:00,
2013-04-06 02:03:00,40.0,20.0,30.10,NNW,343,7.0,12.0,45,0.00,,,0.00,,2013-04-06 06:03:00,
2013-04-06 02:12:00,40.0,20.0,30.10,NNW,343,7.0,12.0,45,0.00,,,0.00,,2013-04-06 06:12:00,
2013-04-06 02:22:00,39.0,21.0,30.11,NNW,339,6.0,11.0,48,0.00,,,0.00,,2013-04-06 06:22:00,
2013-04-06 02:33:00,39.0,20.0,30.12,North,355,9.0,12.0,47,0.00,,,0.00,,2013-04-06 06:33:00,
2013-04-06 02:43:00,39.0,20.0,30.12,North,355,9.0,12.0,47,0.00,,,0.00,,2013-04-06 06:43:00,
2013-04-06 02:53:00,39.0,21.0,30.12,NNW,340,9.0,17.0,48,0.00,,,0.00,,2013-04-06 06:53:00,
2013-04-06 03:03:00,38.0,21.0,30.12,North,355,4.0,9.0,49,0.00,,,0.00,,2013-04-06 07:03:00,
2013-04-06 03:12:00,38.0,21.0,30.12,North,355,4.0,9.0,49,0.00,,,0.00,,2013-04-06 07:12:00,
2013-04-06 03:22:00,36.0,20.0,30.12,North,355,2.0,5.0,52,0.00,,,0.00,,2013-04-06 07:22:00,
2013-04-06 03:33:00,36.0,21.0,30.13,North,351,2.0,4.0,53,0.00,,,0.00,,2013-04-06 07:33:00,
2013-04-06 03:43:00,36.0,21.0,30.13,North,351,2.0,4.0,53,0.00,,,0.00,,2013-04-06 07:43:00,
2013-04-06 03:53:00,34.0,20.0,30.14,NNW,344,1.0,5.0,56,0.00,,,0.00,,2013-04-06 07:53:00,
2013-04-06 04:02:00,35.0,20.0,30.14,NNW,344,0.0,2.0,54,0.00,,,0.00,,2013-04-06 08:02:00,
2013-04-06 04:13:00,35.0,20.0,30.14,NNW,344,0.0,2.0,54,0.00,,,0.00,,2013-04-06 08:13:00,
2013-04-06 04:22:00,34.0,20.0,30.15,NNW,344,0.0,2.0,55,0.00,,,0.00,,2013-04-06 08:22:00,
2013-04-06 04:32:00,34.0,20.0,30.15,NNW,344,1.0,3.0,56,0.00,,,0.00,,2013-04-06 08:32:00,
2013-04-06 04:42:00,34.0,20.0,30.15,NNW,344,1.0,3.0,56,0.00,,,0.00,,2013-04-06 08:42:00,
2013-04-06 04:52:00,33.0,19.0,30.15,ESE,105,0.0,2.0,57,0.00,,,0.00,,2013-04-06 08:52:00,
2013-04-06 05:02:00,35.0,20.0,30.15,ESE,111,1.0,3.0,54,0.00,,,0.00,,2013-04-06 09:02:00,
2013-04-06 05:12:00,35.0,20.0,30.15,ESE,111,1.0,3.0,54,0.00,,,0.00,,2013-04-06 09:12:00,
2013-04-06 05:22:00,36.0,20.0,30.15,ESE,111,1.0,3.0,52,0.00,,,0.00,,2013-04-06 09:22:00,
2013-04-06 05:33:00,35.0,20.0,30.16,ESE,110,0.0,4.0,53,0.00,,,0.00,,2013-04-06 09:33:00,
2013-04-06 05:43:00,35.0,20.0,30.16,ESE,110,0.0,4.0,53,0.00,,,0.00,,2013-04-06 09:43:00,
2013-04-06 05:53:00,34.0,20.0,30.17,ESE,110,0.0,1.0,55,0.00,,,0.00,,2013-04-06 09:53:00,
2013-04-06 06:03:00,33.0,19.0,30.19,ESE,110,0.0,1.0,57,0.00,,,0.00,,2013-04-06 10:03:00,
2013-04-06 06:13:00,33.0,19.0,30.19,ESE,110,0.0,1.0,57,0.00,,,0.00,,2013-04-06 10:13:00,
2013-04-06 06:23:00,32.0,19.0,30.19,ESE,110,0.0,2.0,59,0.00,,,0.00,,2013-04-06 10:23:00,
2013-04-06 06:33:00,31.0,19.0,30.20,ESE,110,0.0,0.0,61,0.00,,,0.00,,2013-04-06 10:33:00,
2013-04-06 06:42:00,31.0,19.0,30.20,ESE,110,0.0,0.0,61,0.00,,,0.00,,2013-04-06 10:42:00,
2013-04-06 06:53:00,31.0,19.0,30.22,ESE,110,0.0,2.0,61,0.00,,,0.00,,2013-04-06 10:53:00,
2013-04-06 07:02:00,32.0,19.0,30.22,ENE,69,2.0,4.0,58,0.00,,,0.00,,2013-04-06 11:02:00,
2013-04-06 07:12:00,32.0,19.0,30.22,ENE,69,2.0,4.0,58,0.00,,,0.00,,2013-04-06 11:12:00,
2013-04-06 07:23:00,31.0,20.0,30.23,NNE,23,2.0,4.0,63,0.00,,,0.00,,2013-04-06 11:23:00,
2013-04-06 07:33:00,32.0,20.0,30.23,NNE,21,2.0,5.0,60,0.00,,,0.00,,2013-04-06 11:33:00,
2013-04-06 07:43:00,32.0,20.0,30.23,NNE,21,2.0,5.0,60,0.00,,,0.00,,2013-04-06 11:43:00,
2013-04-06 07:53:00,33.0,20.0,30.25,NNE,21,1.0,2.0,59,0.00,,,0.00,,2013-04-06 11:53:00,
2013-04-06 08:02:00,34.0,21.0,30.26,NNE,21,0.0,1.0,58,0.00,,,0.00,,2013-04-06 12:02:00,
2013-04-06 08:13:00,34.0,21.0,30.26,NNE,21,0.0,1.0,58,0.00,,,0.00,,2013-04-06 12:13:00,
2013-04-06 08:22:00,36.0,21.0,30.27,East,90,2.0,5.0,55,0.00,,,0.00,,2013-04-06 12:22:00,
2013-04-06 08:33:00,36.0,21.0,30.27,NNE,18,4.0,5.0,55,0.00,,,0.00,,2013-04-06 12:33:00,
2013-04-06 08:43:00,36.0,21.0,30.27,NNE,18,4.0,5.0,55,0.00,,,0.00,,2013-04-06 12:43:00,
2013-04-06 08:53:00,37.0,21.0,30.28,NNE,13,3.0,7.0,53,0.00,,,0.00,,2013-04-06 12:53:00,
2013-04-06 09:03:00,38.0,22.0,30.28,North,355,1.0,7.0,51,0.00,,,0.00,,2013-04-06 13:03:00,
2013-04-06 09:13:00,38.0,22.0,30.28,North,355,1.0,7.0,51,0.00,,,0.00,,2013-04-06 13:13:00,
2013-04-06 09:24:00,39.0,21.0,30.28,NNE,28,3.0,8.0,48,0.00,,,0.00,,2013-04-06 13:24:00,
2013-04-06 09:32:00,40.0,22.0,30.29,NNE,13,5.0,7.0,48,0.00,,,0.00,,2013-04-06 13:32:00,
2013-04-06 09:43:00,40.0,22.0,30.29,NNE,13,5.0,7.0,48,0.00,,,0.00,,2013-04-06 13:43:00,
2013-04-06 09:54:00,40.0,22.0,30.29,North,5,4.0,9.0,48,0.00,,,0.00,,2013-04-06 13:54:00,
2013-04-06 10:04:00,41.0,22.0,30.29,North,355,4.0,8.0,46,0.00,,,0.00,,2013-04-06 14:04:00,
2013-04-06 10:12:00,42.0,23.0,30.29,ENE,61,1.0,7.0,47,0.00,,,0.00,,2013-04-06 14:12:00,
2013-04-06 10:22:00,42.0,23.0,30.29,ENE,61,1.0,7.0,47,0.00,,,0.00,,2013-04-06 14:22:00,
2013-04-06 10:33:00,42.0,22.0,30.29,NNW,342,3.0,12.0,44,0.00,,,0.00,,2013-04-06 14:33:00,
2013-04-06 10:43:00,42.0,22.0,30.29,NNW,342,3.0,12.0,44,0.00,,,0.00,,2013-04-06 14:43:00,
2013-04-06 10:53:00,43.0,22.0,30.29,NNE,20,2.0,8.0,43,0.00,,,0.00,,2013-04-06 14:53:00,
2013-04-06 11:02:00,44.0,23.0,30.30,ENE,67,3.0,7.0,43,0.00,,,0.00,,2013-04-06 15:02:00,
2013-04-06 11:12:00,44.0,23.0,30.30,ENE,67,3.0,7.0,43,0.00,,,0.00,,2013-04-06 15:12:00,
2013-04-06 11:23:00,45.0,23.0,30.30,NE,40,1.0,4.0,41,0.00,,,0.00,,2013-04-06 15:23:00,
2013-04-06 11:33:00,44.0,22.0,30.29,NNW,337,5.0,9.0,41,0.00,,,0.00,,2013-04-06 15:33:00,
2013-04-06 11:43:00,44.0,22.0,30.29,NNW,337,5.0,9.0,41,0.00,,,0.00,,2013-04-06 15:43:00,
2013-04-06 11:53:00,45.0,23.0,30.29,NNW,344,1.0,8.0,41,0.00,,,0.00,,2013-04-06 15:53:00,
2013-04-06 12:05:00,45.0,22.0,30.29,North,355,3.0,9.0,40,0.00,,,0.00,,2013-04-06 16:05:00,
2013-04-06 12:17:00,45.0,22.0,30.29,North,355,3.0,9.0,40,0.00,,,0.00,,2013-04-06 16:17:00,
2013-04-06 12:23:00,46.0,22.0,30.29,NNW,328,2.0,9.0,39,0.00,,,0.00,,2013-04-06 16:23:00,
2013-04-06 12:33:00,47.0,23.0,30.29,SW,226,1.0,5.0,39,0.00,,,0.00,,2013-04-06 16:33:00,
2013-04-06 12:42:00,47.0,23.0,30.29,SW,226,1.0,5.0,39,0.00,,,0.00,,2013-04-06 16:42:00,
2013-04-06 12:53:00,47.0,22.0,30.28,North,5,3.0,7.0,37,0.00,,,0.00,,2013-04-06 16:53:00,
2013-04-06 13:03:00,48.0,22.0,30.28,East,83,4.0,5.0,36,0.00,,,0.00,,2013-04-06 17:03:00,
2013-04-06 13:12:00,48.0,22.0,30.28,East,83,4.0,5.0,36,0.00,,,0.00,,2013-04-06 17:12:00,
2013-04-06 13:22:00,48.0,23.0,30.28,NNW,344,3.0,6.0,37,0.00,,,0.00,,2013-04-06 17:22:00,
2013-04-06 13:32:00,49.0,25.0,30.28,NNW,344,2.0,6.0,38,0.00,,,0.00,,2013-04-06 17:32:00,
2013-04-06 13:42:00,49.0,25.0,30.28,NNW,344,2.0,6.0,38,0.00,,,0.00,,2013-04-06 17:42:00,
2013-04-06 13:52:00,50.0,26.0,30.27,West,267,3.0,8.0,39,0.00,,,0.00,,2013-04-06 17:52:00,
2013-04-06 14:03:00,51.0,21.0,30.27,NNE,17,2.0,5.0,31,0.00,,,0.00,,2013-04-06 18:03:00,
2013-04-06 14:12:00,51.0,21.0,30.27,NNE,17,2.0,5.0,31,0.00,,,0.00,,2013-04-06 18:12:00,
2013-04-06 14:23:00,51.0,21.0,30.26,WNW,301,1.0,4.0,31,0.00,,,0.00,,2013-04-06 18:23:00,
2013-04-06 14:32:00,52.0,24.0,30.26,SW,227,2.0,8.0,33,0.00,,,0.00,,2013-04-06 18:32:00,
2013-04-06 14:42:00,52.0,24.0,30.26,SW,227,2.0,8.0,33,0.00,,,0.00,,2013-04-06 18:42:00,
2013-04-06 14:52:00,52.0,23.0,30.25,SSW,211,3.0,7.0,32,0.00,,,0.00,,2013-04-06 18:52:00,
2013-04-06 15:03:00,53.0,25.0,30.24,SW,228,3.0,7.0,33,0.00,,,0.00,,2013-04-06 19:03:00,
2013-04-06 15:12:00,53.0,25.0,30.24,SW,228,3.0,7.0,33,0.00,,,0.00,,2013-04-06 19:12:00,
2013-04-06 15:23:00,53.0,22.0,30.23,West,271,3.0,10.0,30,0.00,,,0.00,,2013-04-06 19:23:00,
2013-04-06 15:33:00,54.0,23.0,30.23,West,265,4.0,9.0,30,0.00,,,0.00,,2013-04-06 19:33:00,
2013-04-06 15:42:00,54.0,23.0,30.23,West,265,4.0,9.0,30,0.00,,,0.00,,2013-04-06 19:42:00,
2013-04-06 15:54:00,54.0,22.0,30.22,WSW,252,2.0,8.0,29,0.00,,,0.00,,2013-04-06 19:54:00,
2013-04-06 16:03:00,55.0,26.0,30.21,SW,221,5.0,11.0,32,0.00,,,0.00,,2013-04-06 20:03:00,
2013-04-06 16:12:00,55.0,26.0,30.21,SW,221,5.0,11.0,32,0.00,,,0.00,,2013-04-06 20:12:00,
2013-04-06 16:22:00,55.0,25.0,30.21,SSW,212,3.0,7.0,31,0.00,,,0.00,,2013-04-06 20:22:00,
2013-04-06 16:32:00,55.0,25.0,30.21,SSW,201,7.0,11.0,31,0.00,,,0.00,,2013-04-06 20:32:00,
2013-04-06 16:42:00,55.0,25.0,30.21,SSW,201,7.0,11.0,31,0.00,,,0.00,,2013-04-06 20:42:00,
2013-04-06 16:53:00,55.0,23.0,30.20,SSW,201,5.0,8.0,28,0.00,,,0.00,,2013-04-06 20:53:00,
2013-04-06 17:02:00,54.0,19.0,30.20,SE,142,5.0,12.0,25,0.00,,,0.00,,2013-04-06 21:02:00,
2013-04-06 17:13:00,54.0,16.0,30.20,SSE,157,4.0,9.0,22,0.00,,,0.00,,2013-04-06 21:13:00,
2013-04-06 17:22:00,54.0,16.0,30.20,SSE,157,4.0,9.0,22,0.00,,,0.00,,2013-04-06 21:22:00,
2013-04-06 17:33:00,55.0,19.0,30.20,SW,222,4.0,7.0,24,0.00,,,0.00,,2013-04-06 21:33:00,
2013-04-06 17:43:00,55.0,19.0,30.20,SW,222,4.0,7.0,24,0.00,,,0.00,,2013-04-06 21:43:00,
2013-04-06 17:53:00,55.0,20.0,30.20,SE,146,3.0,7.0,25,0.00,,,0.00,,2013-04-06 21:53:00,
2013-04-06 18:03:00,55.0,21.0,30.20,SE,125,4.0,9.0,26,0.00,,,0.00,,2013-04-06 22:03:00,
2013-04-06 18:13:00,55.0,21.0,30.20,SE,125,4.0,9.0,26,0.00,,,0.00,,2013-04-06 22:13:00,
2013-04-06 18:23:00,54.0,20.0,30.20,South,189,2.0,8.0,26,0.00,,,0.00,,2013-04-06 22:23:00,
2013-04-06 18:34:00,54.0,20.0,30.21,SSE,160,2.0,8.0,26,0.00,,,0.00,,2013-04-06 22:34:00,
2013-04-06 18:43:00,54.0,20.0,30.21,SSE,160,2.0,8.0,26,0.00,,,0.00,,2013-04-06 22:43:00,
2013-04-06 18:55:00,54.0,22.0,30.20,South,178,1.0,6.0,29,0.00,,,0.00,,2013-04-06 22:55:00,
2013-04-06 19:03:00,53.0,21.0,30.20,SSE,161,3.0,7.0,28,0.00,,,0.00,,2013-04-06 23:03:00,
2013-04-06 19:14:00,53.0,21.0,30.20,SSE,161,3.0,7.0,28,0.00,,,0.00,,2013-04-06 23:14:00,
2013-04-06 19:23:00,53.0,20.0,30.20,South,173,2.0,7.0,27,0.00,,,0.00,,2013-04-06 23:23:00,
2013-04-06 19:34:00,53.0,19.0,30.20,SSE,164,3.0,7.0,26,0.00,,,0.00,,2013-04-06 23:34:00,
2013-04-06 19:42:00,53.0,19.0,30.20,SSE,164,3.0,7.0,26,0.00,,,0.00,,2013-04-06 23:42:00,
2013-04-06 19:53:00,52.0,20.0,30.19,South,182,2.0,5.0,28,0.00,,,0.00,,2013-04-06 23:53:00,
2013-04-06 20:02:00,51.0,20.0,30.20,SSE,158,2.0,4.0,29,0.00,,,0.00,,2013-04-07 00:02:00,
2013-04-06 20:13:00,51.0,20.0,30.20,SSE,158,2.0,4.0,29,0.00,,,0.00,,2013-04-07 00:13:00,
2013-04-06 20:22:00,50.0,20.0,30.20,SSE,158,0.0,3.0,30,0.00,,,0.00,,2013-04-07 00:22:00,
2013-04-06 20:33:00,49.0,20.0,30.20,SSE,158,1.0,3.0,31,0.00,,,0.00,,2013-04-07 00:33:00,
2013-04-06 20:43:00,49.0,20.0,30.20,SSE,158,1.0,3.0,31,0.00,,,0.00,,2013-04-07 00:43:00,
2013-04-06 20:53:00,49.0,20.0,30.20,SSE,158,0.0,1.0,32,0.00,,,0.00,,2013-04-07 00:53:00,
2013-04-06 21:02:00,49.0,20.0,30.20,SSE,158,1.0,2.0,32,0.00,,,0.00,,2013-04-07 01:02:00,
2013-04-06 21:12:00,49.0,20.0,30.20,SSE,158,1.0,2.0,32,0.00,,,0.00,,2013-04-07 01:12:00,
2013-04-06 21:23:00,49.0,20.0,30.20,SSE,157,1.0,4.0,31,0.00,,,0.00,,2013-04-07 01:23:00,
2013-04-06 21:33:00,49.0,20.0,30.20,SSE,155,1.0,4.0,32,0.00,,,0.00,,2013-04-07 01:33:00,
2013-04-06 21:43:00,49.0,20.0,30.20,SSE,155,1.0,4.0,32,0.00,,,0.00,,2013-04-07 01:43:00,
2013-04-06 21:53:00,49.0,20.0,30.19,SE,145,1.0,4.0,32,0.00,,,0.00,,2013-04-07 01:53:00,
2013-04-06 22:03:00,49.0,20.0,30.20,South,175,1.0,6.0,32,0.00,,,0.00,,2013-04-07 02:03:00,
2013-04-06 22:12:00,49.0,20.0,30.20,South,175,1.0,6.0,32,0.00,,,0.00,,2013-04-07 02:12:00,
2013-04-06 22:23:00,49.0,21.0,30.20,SSE,162,3.0,10.0,33,0.00,,,0.00,,2013-04-07 02:23:00,
2013-04-06 22:33:00,49.0,22.0,30.19,South,171,5.0,12.0,34,0.00,,,0.00,,2013-04-07 02:33:00,
2013-04-06 22:43:00,49.0,22.0,30.19,South,171,5.0,12.0,34,0.00,,,0.00,,2013-04-07 02:43:00,
2013-04-06 22:52:00,48.0,22.0,30.20,SSE,167,6.0,12.0,35,0.00,,,0.00,,2013-04-07 02:52:00,
2013-04-06 23:02:00,48.0,22.0,30.19,SSE,163,3.0,8.0,36,0.00,,,0.00,,2013-04-07 03:02:00,
2013-04-06 23:12:00,48.0,22.0,30.19,SSE,163,3.0,8.0,36,0.00,,,0.00,,2013-04-07 03:12:00,
2013-04-06 23:22:00,48.0,21.0,30.20,South,175,5.0,10.0,34,0.00,,,0.00,,2013-04-07 03:22:00,
2013-04-06 23:35:00,47.0,20.0,30.20,South,170,3.0,7.0,34,0.00,,,0.00,,2013-04-07 03:35:00,
2013-04-06 23:43:00,47.0,20.0,30.20,South,170,3.0,7.0,34,0.00,,,0.00,,2013-04-07 03:43:00,
2013-04-06 23:55:00,47.0,19.0,30.20,SSW,198,4.0,10.0,33,0.00,,,0.00,,2013-04-07 03:55:00,